Franklin, PA

4:32 PM EDT on September 30, 2016 (GMT -0400)
Venango Regional

Weather History for KFKL - November, 2011

Change the Weather History Date:

Sunday, November 6, 2011

  Actual Average Record
Temperature  
Mean Temperature 44 °F -  
Max Temperature 59 °F 51 °F 76 °F (1948)
Min Temperature 30 °F 34 °F 12 °F (1991)
Degree Days  
Heating Degree Days 20    
Moisture  
Dew Point 21 °F    
Average Humidity 45    
Maximum Humidity 64    
Minimum Humidity 29    
Precipitation  
Precipitation 0.00 in - - ()
Sea Level Pressure  
Sea Level Pressure 30.34 in    
Wind  
Wind Speed 9 mph (SE)    
Max Wind Speed 13 mph    
Max Gust Speed 16 mph    
Visibility 10 miles    
Events      
Averages and records for this station are not official NWS values.
T = Trace of Precipitation, MM = Missing Value Source: NWS Daily Summary

Daily Weather History Graph

Daily Weather History Graph

Search for Another Location

Airport or City:

Trip Planner

Search our weather history database for the weather conditions in past years. The results will help you decide how hot, cold, wet, or windy it might be!

Date:

Astronomy

Nov. 06, 2011 Rise Set
Actual Time 6:56 AM EST 5:08 PM EST
Civil Twilight 6:27 AM EST 5:37 PM EST
Nautical Twilight 5:54 AM EST 6:10 PM EST
Astronomical Twilight 5:22 AM EST 6:43 PM EST
Moon 2:54 PM EST (11/6) 2:59 AM EST (11/6)
Length of Visible Light 11h 10m
Length of Day
10h 12m
Waxing Gibbous, 85% of the Moon is Illuminated
Nov 6
Waxing Gibbous
Nov 10
Full
Nov 18
Last Quarter
Nov 25
New
Dec 2
First Quarter

Hourly Weather History & Observations

Time (EST) Temp. Windchill Dew Point Humidity Pressure Visibility Wind Dir Wind Speed Gust Speed Precip Events Conditions
12:15 AM 37.4 °F 30.3 °F 17.6 °F 45% 30.32 in 10.0 mi SE 10.4 mph - N/A   Clear
12:35 AM 37.4 °F 30.8 °F 17.6 °F 45% 30.32 in 10.0 mi ESE 9.2 mph - N/A   Clear
12:55 AM 37.4 °F 31.4 °F 17.6 °F 45% 30.32 in 10.0 mi SE 8.1 mph - N/A   Clear
1:15 AM 37.4 °F 30.8 °F 17.6 °F 45% 30.32 in 10.0 mi SE 9.2 mph - N/A   Clear
1:35 AM 37.4 °F 30.8 °F 17.6 °F 45% 30.33 in 10.0 mi SE 9.2 mph - N/A   Clear
1:55 AM 37.4 °F 31.4 °F 17.6 °F 45% 30.33 in 10.0 mi SE 8.1 mph - N/A   Clear
1:15 AM 35.6 °F 28.0 °F 17.6 °F 48% 30.33 in 10.0 mi SE 10.4 mph - N/A   Clear
1:35 AM 35.6 °F 28.6 °F 17.6 °F 48% 30.33 in 10.0 mi SE 9.2 mph - N/A   Clear
1:55 AM 35.6 °F 28.6 °F 17.6 °F 48% 30.33 in 10.0 mi SE 9.2 mph - N/A   Clear
2:15 AM 35.6 °F 28.6 °F 19.4 °F 52% 30.33 in 10.0 mi SE 9.2 mph - N/A   Clear
2:35 AM 35.6 °F 28.6 °F 17.6 °F 48% 30.33 in 10.0 mi SE 9.2 mph - N/A   Clear
2:55 AM 35.6 °F 28.6 °F 19.4 °F 52% 30.33 in 10.0 mi SE 9.2 mph - N/A   Clear
3:15 AM 33.8 °F 26.4 °F 19.4 °F 56% 30.32 in 10.0 mi SE 9.2 mph - N/A   Clear
3:35 AM 33.8 °F 26.4 °F 17.6 °F 52% 30.32 in 10.0 mi SE 9.2 mph - N/A   Clear
3:55 AM 33.8 °F 27.0 °F 19.4 °F 56% 30.33 in 10.0 mi SE 8.1 mph - N/A   Clear
4:15 AM 33.8 °F 27.0 °F 19.4 °F 56% 30.33 in 10.0 mi SE 8.1 mph - N/A   Clear
4:35 AM 33.8 °F 27.0 °F 19.4 °F 56% 30.34 in 10.0 mi ESE 8.1 mph - N/A   Clear
4:55 AM 32.0 °F 25.6 °F 19.4 °F 60% 30.34 in 10.0 mi ESE 6.9 mph - N/A   Clear
5:15 AM 32.0 °F 25.6 °F 19.4 °F 60% 30.35 in 10.0 mi ESE 6.9 mph - N/A   Clear
5:35 AM 30.2 °F 24.3 °F 19.4 °F 64% 30.35 in 10.0 mi ESE 5.8 mph - N/A   Clear
5:55 AM 30.2 °F 24.3 °F 19.4 °F 64% 30.36 in 10.0 mi ESE 5.8 mph - N/A   Clear
6:15 AM 30.2 °F 24.3 °F 19.4 °F 64% 30.36 in 10.0 mi ESE 5.8 mph - N/A   Clear
6:35 AM 30.2 °F 24.3 °F 19.4 °F 64% 30.36 in 10.0 mi ESE 5.8 mph - N/A   Clear
6:55 AM 30.2 °F 23.4 °F 19.4 °F 64% 30.36 in 10.0 mi ESE 6.9 mph - N/A   Clear
7:15 AM 30.2 °F 23.4 °F 19.4 °F 64% 30.37 in 10.0 mi SE 6.9 mph - N/A   Clear
7:35 AM 32.0 °F 25.6 °F 19.4 °F 60% 30.37 in 10.0 mi ESE 6.9 mph - N/A   Clear
7:55 AM 35.6 °F 30.7 °F 19.4 °F 52% 30.38 in 10.0 mi SE 5.8 mph - N/A   Clear
8:15 AM 37.4 °F 32.1 °F 19.4 °F 48% 30.38 in 10.0 mi SSE 6.9 mph - N/A   Clear
8:35 AM 39.2 °F 34.2 °F 19.4 °F 45% 30.39 in 10.0 mi SSE 6.9 mph - N/A   Clear
8:55 AM 39.2 °F 34.2 °F 21.2 °F 49% 30.39 in 10.0 mi SSE 6.9 mph - N/A   Clear
9:15 AM 41.0 °F 35.8 °F 21.2 °F 45% 30.39 in 10.0 mi South 8.1 mph - N/A   Clear
9:35 AM 42.8 °F 38.0 °F 21.2 °F 42% 30.40 in 10.0 mi SSE 8.1 mph - N/A   Clear
9:55 AM 44.6 °F 38.8 °F 21.2 °F 39% 30.39 in 10.0 mi SSE 11.5 mph - N/A   Clear
10:15 AM 44.6 °F 39.2 °F 23.0 °F 43% 30.39 in 10.0 mi SSE 10.4 mph - N/A   Clear
10:35 AM 46.4 °F 41.9 °F 24.8 °F 43% 30.38 in 10.0 mi South 9.2 mph - N/A   Clear
10:55 AM 50.0 °F - 24.8 °F 37% 30.38 in 10.0 mi South 9.2 mph - N/A   Clear
11:15 AM 51.8 °F - 23.0 °F 33% 30.37 in 10.0 mi South 8.1 mph - N/A   Clear
11:35 AM 51.8 °F - 24.8 °F 35% 30.37 in 10.0 mi South 9.2 mph - N/A   Clear
11:55 AM 53.6 °F - 24.8 °F 33% 30.35 in 10.0 mi South 8.1 mph - N/A   Clear
12:15 PM 53.6 °F - 24.8 °F 33% 30.34 in 10.0 mi SSE 8.1 mph - N/A   Clear
12:35 PM 55.4 °F - 24.8 °F 31% 30.33 in 10.0 mi SSE 10.4 mph - N/A   Clear
12:55 PM 55.4 °F - 24.8 °F 31% 30.32 in 10.0 mi South 10.4 mph 16.1 mph N/A   Clear
1:15 PM 57.2 °F - 24.8 °F 29% 30.30 in 10.0 mi SE 10.4 mph - N/A   Clear
1:35 PM 57.2 °F - 26.6 °F 31% 30.30 in 10.0 mi South 9.2 mph - N/A   Clear
1:55 PM 57.2 °F - 26.6 °F 31% 30.30 in 10.0 mi SSE 11.5 mph - N/A   Clear
2:15 PM 57.2 °F - 26.6 °F 31% 30.30 in 10.0 mi South 9.2 mph - N/A   Clear
2:35 PM 59.0 °F - 26.6 °F 29% 30.29 in 10.0 mi South 9.2 mph - N/A   Clear
2:55 PM 59.0 °F - 26.6 °F 29% 30.29 in 10.0 mi SE 10.4 mph - N/A   Clear
3:15 PM 57.2 °F - 26.6 °F 31% 30.28 in 10.0 mi South 12.7 mph - N/A   Clear
3:35 PM 57.2 °F - 26.6 °F 31% 30.28 in 10.0 mi South 11.5 mph - N/A   Clear
3:55 PM 57.2 °F - 26.6 °F 31% 30.28 in 10.0 mi South 12.7 mph - N/A   Clear
4:15 PM 55.4 °F - 24.8 °F 31% 30.29 in 10.0 mi South 11.5 mph - N/A   Clear
4:35 PM 55.4 °F - 24.8 °F 31% 30.29 in 10.0 mi South 9.2 mph - N/A   Clear
4:55 PM 53.6 °F - 24.8 °F 33% 30.27 in 10.0 mi South 9.2 mph - N/A   Clear
5:15 PM 51.8 °F - 24.8 °F 35% 30.27 in 10.0 mi South 8.1 mph - N/A   Clear
5:35 PM 50.0 °F - 24.8 °F 37% 30.28 in 10.0 mi South 8.1 mph - N/A   Clear
5:55 PM 48.2 °F - 24.8 °F 40% 30.28 in 10.0 mi South 9.2 mph - N/A   Clear
6:15 PM 48.2 °F - 24.8 °F 40% 30.28 in 10.0 mi South 9.2 mph - N/A   Clear
6:35 PM 48.2 °F - 24.8 °F 40% 30.29 in 10.0 mi South 8.1 mph - N/A   Clear
6:55 PM 48.2 °F - 24.8 °F 40% 30.29 in 10.0 mi South 8.1 mph - N/A   Clear
7:15 PM 48.2 °F - 24.8 °F 40% 30.29 in 10.0 mi South 9.2 mph - N/A   Clear
7:35 PM 48.2 °F - 24.8 °F 40% 30.29 in 10.0 mi SSE 9.2 mph - N/A   Clear
7:55 PM 48.2 °F - 24.8 °F 40% 30.29 in 10.0 mi SSE 9.2 mph - N/A   Clear
8:15 PM 48.2 °F - 24.8 °F 40% 30.28 in 10.0 mi SSE 9.2 mph - N/A   Clear
8:35 PM 46.4 °F 41.5 °F 24.8 °F 43% 30.29 in 10.0 mi SSE 10.4 mph - N/A   Clear
8:55 PM 46.4 °F 41.5 °F 24.8 °F 43% 30.28 in 10.0 mi SSE 10.4 mph - N/A   Clear
9:15 PM 46.4 °F 41.5 °F 24.8 °F 43% 30.28 in 10.0 mi South 10.4 mph - N/A   Clear
9:35 PM 42.8 °F 37.0 °F 24.8 °F 49% 30.29 in 10.0 mi South 10.4 mph - N/A   Clear
9:55 PM 42.8 °F 37.5 °F 24.8 °F 49% 30.29 in 10.0 mi South 9.2 mph - N/A   Clear
10:15 PM 42.8 °F 38.0 °F 24.8 °F 49% 30.28 in 10.0 mi South 8.1 mph - N/A   Clear
10:35 PM 41.0 °F 35.2 °F 24.8 °F 53% 30.29 in 10.0 mi South 9.2 mph - N/A   Clear
10:55 PM 41.0 °F 35.2 °F 24.8 °F 53% 30.29 in 10.0 mi South 9.2 mph - N/A   Clear